x

South Santa Rosa Is. Ca (46069) Wave Buoy

6:50 - Mon 27th Feb 2017 All times are PST. -8 hours from GMT.

  • Sig Wave height 6.2ft
  • Swell Direction
  • Peak Period 16s
  • Average Period 9s
  • Wind
  • Sea Temp 56°f
  • Air Temp 54°f
  • Sea Pressure 1011.5mb
  • South Santa Rosa Is. Ca
  • South Santa Rosa Is. Ca

More Historic Weather Station data

Upgrade to MSW Pro to gain access to the past 30 days of data for over 8000 Wavebouys and Weather Stations around the globe.

Join Pro

Comparision Forecast

View Surf forecast
   
lun. 02/27 6:50 6ft 16s 9s  -  2 mph 1011.5mb 56f 54f
5:50 6ft 17s 9s 2 4 mph 1011.5mb 56f 54f
4:50 5.5ft 14s 8s 2 4 mph 1011.4mb 56f 54f
3:50 5.5ft 16s 9s 7 9 mph 1011.8mb 56f 54f
2:50 5ft 16s 9s 4 7 mph 1012.2mb 56f 54f
1:50 5ft 14s 8s 7 9 mph 1013mb 56f 54f
12:50 5.5ft 17s 9s 7 9 mph 1013mb 56f 54f
dim. 02/26 11:50 5ft 17s 8s 9 11 mph 1013.3mb 56f 54f
10:50 5.5ft 14s 8s 7 9 mph 1013.5mb 56f 54f
9:50 5ft 17s 8s 7 9 mph 1013.4mb 56f 54f
8:50 6ft 17s 8s 7 9 mph 1013.2mb 57f 54f
7:50 6ft 14s 8s 7 9 mph 1013.3mb 57f 54f
6:50 6ft 14s 7s 7 9 mph 1013.5mb 57f 54f
5:50 6ft 19s 7s 4 7 mph 1013.8mb 57f 54f
4:50 6ft 14s 7s 2 4 mph 1013.7mb 57f 54f
3:50 6ft 14s 7s 7 9 mph 1014mb 58f 54f
2:50 6ft 7s 7s 4 7 mph 1014.1mb 57f 54f
1:50 6ft 14s 7s 4 9 mph 1014.2mb 58f 54f
12:50 6ft 8s 7s 4 7 mph 1014.9mb 57f 53f
11:50 6ft 7s 7s 4
mph
1015.5mb 57f 53f
10:50 6ft 7s 6s 4 7 mph 1015.8mb 56f 53f
9:50 5ft 14s 6s 7
mph
1015.7mb 56f 53f
8:50 6ft 14s 6s 9 11 mph 1015.5mb 56f 52f
7:50 6ft 15s 6s 13 18 mph 1014.8mb 56f 53f
6:50 5.5ft 14s 6s 20 22 mph 1013.9mb 56f 53f
5:50 6ft 14s 6s 18 22 mph 1013.6mb 56f 53f
4:50 5ft 14s 6s 20 22 mph 1013.3mb 56f 53f
3:50 4.5ft 15s 6s 20 25 mph 1013.4mb 56f 51f
2:50 4.5ft 15s 8s 16 18 mph 1014.1mb 56f 52f
1:50 5ft 14s 9s 11 13 mph 1015mb 56f 51f
12:50 4.5ft 15s 8s 4
mph
1015.9mb 56f 53f
sam. 02/25 11:50 5ft 15s 8s 7 9 mph 1016.5mb 56f 53f
10:50 5ft 15s 8s 9 11 mph 1016.6mb 56f 53f
9:50 5.5ft 15s 7s 13 16 mph 1017.1mb 56f 53f
8:50 6ft 15s 7s 16 20 mph 1017.2mb 56f 53f
7:50 6ft 15s 7s 18 20 mph 1017.4mb 56f 53f
6:50 6ft 15s 7s 18 22 mph 1017.4mb 56f 53f
5:50 6ft 15s 7s 16 20 mph 1017.3mb 56f 52f
4:50 6ft 15s 8s 16 20 mph 1017.3mb 56f 52f
3:50 5.5ft 15s 7s 16 20 mph 1017.8mb 56f 52f
2:50 6ft 15s 7s 16 18 mph 1018.1mb 56f 52f
1:50 5ft 16s 6s 18 20 mph 1018.8mb 56f 52f
12:50 6ft 15s 6s 18 22 mph 1019.8mb 56f 53f
11:50 6ft 15s 6s 18 20 mph 1020.3mb 56f 53f
10:50 6ft 15s 6s 18 20 mph 1020.2mb 56f 53f
9:50 7ft 15s 7s 16 20 mph 1020.2mb 56f 53f
8:50 7.5ft 16s 7s 20 27 mph 1020.5mb 56f 53f
7:50 7ft 16s 6s 22 27 mph 1020.1mb 56f 53f
6:50 6ft 16s 6s 20 27 mph 1019.8mb 56f 52f
5:50 6.5ft 16s 7s 20 25 mph 1019.6mb 56f 52f
4:50 6ft 16s 6s 18 22 mph 1019.8mb 56f 53f
3:50 5.5ft 16s 6s 18 22 mph 1019.8mb 56f 53f
2:50 5.5ft 16s 6s 20 22 mph 1020.2mb 56f 53f
1:50 6ft 16s 6s 18 20 mph 1020.9mb 56f 53f
12:50 6ft 17s 6s 20 25 mph 1021.1mb 56f 53f
ven. 02/24 11:50 6ft 16s 6s 22 25 mph 1021.5mb 56f 53f
10:50 6ft 16s 6s 22 27 mph 1021.6mb 56f 53f
9:50 6ft 17s 6s 22 27 mph 1021.9mb 56f 53f
8:50 6.5ft 8s 6s 22 27 mph 1021.6mb 56f 53f
7:50 7ft 6s 6s 22 29 mph 1021.1mb 56f 53f
6:50 7ft 8s 6s 25 27 mph 1021mb 56f 53f
5:50 7ft 8s 6s 25 29 mph 1021mb 56f 53f
4:50 7ft 7s 6s 25 29 mph 1021.1mb 56f 53f
3:50 6.5ft 8s 6s 25 29 mph 1021.2mb 56f 53f
2:50 6.5ft 8s 6s 22 27 mph 1021.6mb 56f 53f
1:50 7ft 8s 6s 22 27 mph 1021.9mb 56f 52f
12:50 7.5ft 8s 6s 22 27 mph 1022.3mb 56f 52f
11:50 7ft 8s 6s 25 29 mph 1022.5mb 56f 52f
10:50 7ft 8s 6s 22 29 mph 1022.8mb 56f 52f
9:50 7ft 8s 6s 22 27 mph 1022.6mb 56f 52f
8:50 8ft 9s 6s 25 29 mph 1022.4mb 56f 52f
7:50 7ft 9s 6s 25 31 mph 1021.6mb 56f 52f
6:50 7ft 9s 6s 22 27 mph 1021.1mb 56f 52f
5:50 7.5ft 9s 6s 22 25 mph 1020.9mb 56f 51f
4:50 7.5ft 9s 6s 22 25 mph 1020.4mb 55f 52f
3:50 8ft 8s 6s 25 29 mph 1020mb 55f 52f
2:50 7.5ft 10s 6s 25 29 mph 1020.4mb 56f 52f
1:50 9ft 8s 7s 22 29 mph 1021.1mb 56f 52f
12:50 9.5ft 8s 6s 25 29 mph 1021.1mb 56f 53f
jeu. 02/23 11:50 10.5ft 8s 7s 27 34 mph 1020.6mb 56f 53f
10:50 9ft 8s 6s 29 34 mph 1020.6mb 56f 52f
9:50 10ft 8s 6s 29 36 mph 1020.3mb 56f 52f
8:50 10.5ft 8s 6s 29 36 mph 1020.3mb 56f 52f
7:50 11ft 8s 6s 31 36 mph 1020mb 56f 52f
6:50 10.5ft 8s 6s 31 36 mph 1019.7mb 56f 52f
5:50 9ft 9s 6s 29 36 mph 1019.5mb 56f 52f
4:50 10ft 8s 7s 29 34 mph 1019.4mb 56f 52f